Flag for Mexico Weather past 2 weeks in Mexicali, Baja California, Mexico

Now
66 °F

Clear.


Feels Like: 66 °F
Forecast: 67 / 95 °F
Wind: 5 mph from Southwest

Location: Imperial County Airport

Current Time: Sep 30, 2014 at 4:31:49 AM

Latest Report: Sep 30, 2014 at 3:53 AM


Visibility: 10 mi

Pressure: 29.79 "Hg

Humidity: 42%

Dew point: 42 °F

Location of MexicaliLocation

Historic Weather in Mexicali — Graph

°F

Mexicali temperature yesterday

Maximum temperature yesterday: 89 °F (at 3:53 PM)
Minimum temperature yesterday: 62 °F (at 6:53 AM)
Average temperature yesterday: 77 °F

Past Weeks' High & Low Weather Summary

 TemperatureHumidityPressure
High108 °F (Sep 15, 1:53 PM)85% (Sep 26, 2:53 AM)29.91 "Hg (Sep 26, 2:53 AM)
Low62 °F (Sep 29, 6:53 AM)10% (Sep 18, 2:53 PM)29.60 "Hg (Sep 18, 3:53 PM)
Average88 °F37%29.75 "Hg
* Reported Sep 15 2:53 AM — Sep 30 2:53 AM, Mexicali, Weather by CustomWeather, © 2014

Note: Actual official high and low records may vary slightly from our data, if they occured in-between our weather recording intervals... More about our weather records

Advertising

Mexicali weather history for previous 24 hours

 ConditionsComfort  
Time TempWeatherWind HumidityBarometerVisibility
2:53 AM
Sep 30
65 °FClear.3 mph47%29.81 "Hg10 mi
1:53 AM67 °FClear.7 mph45%29.81 "Hg10 mi
12:53 AM70 °FClear.No wind46%29.81 "Hg10 mi
11:53 PM
Sep 29
71 °FClear.No wind41%29.80 "Hg10 mi
10:53 PM71 °FClear.No wind45%29.80 "Hg10 mi
9:53 PM74 °FClear.3 mph38%29.80 "Hg10 mi
8:53 PM77 °FClear.5 mph33%29.80 "Hg10 mi
7:53 PM79 °FClear.5 mph31%29.78 "Hg10 mi
6:53 PM83 °FSunny.5 mph26%29.77 "Hg10 mi
5:53 PM87 °FSunny.5 mph24%29.77 "Hg10 mi
4:53 PM88 °FSunny.5 mph22%29.78 "Hg10 mi
3:53 PM89 °FSunny.5 mph22%29.78 "Hg10 mi
2:53 PM88 °FSunny.6 mph22%29.79 "Hg10 mi
1:53 PM88 °FSunny.5 mph22%29.80 "Hg10 mi
12:53 PM86 °FSunny.5 mph24%29.84 "Hg10 mi
11:53 AM84 °FPleasantly warm.N/A29%29.86 "HgN/A
10:53 AM83 °FSunny.7 mph30%29.86 "Hg10 mi
9:53 AM80 °FSunny.8 mph36%29.87 "Hg10 mi
8:53 AM76 °FSunny.9 mph43%29.86 "Hg10 mi
7:53 AM68 °FSunny.3 mph47%29.85 "Hg10 mi
6:53 AM62 °FClear.8 mph52%29.83 "Hg10 mi
5:53 AM66 °FClear.8 mph43%29.81 "Hg10 mi
4:53 AM68 °FClear.8 mph40%29.81 "Hg10 mi
Weather by CustomWeather, © 2014

See weather overviewHow to use our weather pages